TimeCST,TemperatureF,Dew PointF,Humidity,Sea Level PressureIn,VisibilityMPH,Wind Direction,Wind SpeedMPH,Gust SpeedMPH,PrecipitationIn,Events,Conditions,WindDirDegrees,DateUTC
12:54 AM,57.9,55.9,93,29.92,6.0,SSE,10.4,-,N/A,,Overcast,150,2012-12-01 06:54:00
1:54 AM,59.0,57.0,93,29.90,7.0,SSE,17.3,-,N/A,,Mostly Cloudy,160,2012-12-01 07:54:00
2:16 AM,59.0,57.2,94,29.91,7.0,SSE,15.0,-,N/A,,Scattered Clouds,160,2012-12-01 08:16:00
4:54 AM,57.9,57.0,97,29.85,7.0,SSE,8.1,-,N/A,,Partly Cloudy,150,2012-12-01 10:54:00
5:23 AM,59.0,57.2,94,29.85,8.0,SSE,10.4,-,N/A,,Mostly Cloudy,160,2012-12-01 11:23:00
5:54 AM,60.1,57.0,90,29.83,9.0,SSE,17.3,23.0,N/A,,Mostly Cloudy,160,2012-12-01 11:54:00
6:04 AM,60.8,57.2,88,29.84,9.0,SSE,17.3,25.3,N/A,,Mostly Cloudy,160,2012-12-01 12:04:00
6:41 AM,59.0,57.2,94,29.83,9.0,South,18.4,25.3,N/A,,Scattered Clouds,170,2012-12-01 12:41:00
6:54 AM,59.0,57.0,93,29.83,9.0,South,17.3,-,N/A,,Partly Cloudy,170,2012-12-01 12:54:00
7:54 AM,59.0,57.0,93,29.81,7.0,SSE,19.6,27.6,N/A,,Clear,160,2012-12-01 13:54:00
8:54 AM,61.0,57.0,87,29.81,9.0,South,17.3,28.8,N/A,,Scattered Clouds,170,2012-12-01 14:54:00
9:10 AM,60.8,57.2,88,29.82,9.0,South,19.6,28.8,N/A,,Mostly Cloudy,170,2012-12-01 15:10:00
9:50 AM,62.6,57.2,82,29.82,10.0,South,20.7,29.9,N/A,,Mostly Cloudy,180,2012-12-01 15:50:00
10:31 AM,64.4,57.2,77,29.83,10.0,South,20.7,29.9,N/A,,Scattered Clouds,190,2012-12-01 16:31:00
11:54 AM,68.0,54.0,61,29.79,10.0,SSW,23.0,34.5,N/A,,Clear,200,2012-12-01 17:54:00
12:54 PM,69.1,51.1,53,29.78,10.0,SSW,23.0,-,N/A,,Clear,210,2012-12-01 18:54:00
3:54 PM,66.0,41.0,40,29.81,10.0,West,9.2,-,N/A,,Clear,270,2012-12-01 21:54:00
5:54 PM,57.0,39.0,51,29.86,10.0,Calm,Calm,-,N/A,,Clear,0,2012-12-01 23:54:00
6:54 PM,50.0,39.0,66,29.89,10.0,NW,4.6,-,N/A,,Clear,320,2012-12-02 00:54:00
7:54 PM,51.1,39.0,63,29.91,10.0,Calm,Calm,-,N/A,,Clear,0,2012-12-02 01:54:00
8:54 PM,46.9,37.9,71,29.91,10.0,Calm,Calm,-,N/A,,Clear,0,2012-12-02 02:54:00
9:54 PM,45.0,37.9,76,29.93,10.0,Calm,Calm,-,N/A,,Clear,0,2012-12-02 03:54:00
10:54 PM,41.0,37.0,86,29.93,10.0,Calm,Calm,-,N/A,,Clear,0,2012-12-02 04:54:00
11:54 PM,41.0,37.0,86,29.94,10.0,Calm,Calm,-,N/A,,Clear,0,2012-12-02 05:54:00